Main page


Airports :

Goeree Le, Netherlands

Oil platform

latitude: 51-55-33N, longitude: 3-40-12E, elevation: 19 m

Current weather observation

The report was made 38 minutes ago, at 16:55 UTC
Wind 16 kt from the North
Temperature 4°C
Humidity 87%
Pressure 1027 hPa
Visibility 10 km or more

METAR: EHSC 201655Z AUTO 36016KT 9999 ///////// 04/02 Q1027 W04/H16

Time: 18:33 (17:33 UTC)

TAF: missing

Weather observations and forecasts of more than 4000 airports (METAR and TAF reports).

The available stations are represented by yellow and red dots on the map.

Hover mouse over dot to see the name of the station.

Then click to see weather observations and forecasts.

To change the map : click on the green buttons with a black cross to zoom in, on the green button with a dash to zoom out, or on the green arrows for adjacent maps.